Del Bajio, Mexico

12:42 AM CDT on September 25, 2016 (GMT -0500)
De Guanajuato International

Weather History for MMLO - December, 2013

Change the Weather History Date:

Sunday, December 22, 2013

  Actual Average Record
Temperature  
Mean Temperature 60 °F -  
Max Temperature 73 °F 73 °F 82 °F (2007)
Min Temperature 46 °F 41 °F 33 °F (2003)
Degree Days  
Heating Degree Days 6    
Growing Degree Days 10 (Base 50)    
Moisture  
Dew Point 44 °F    
Average Humidity 61    
Maximum Humidity 93    
Minimum Humidity 29    
Precipitation  
Precipitation 0.00 in - - ()
Sea Level Pressure  
Sea Level Pressure 30.11 in    
Wind  
Wind Speed 3 mph ()    
Max Wind Speed 10 mph    
Max Gust Speed -    
Visibility 8.9 miles    
Events      
Averages and records for this station are not official NWS values.
T = Trace of Precipitation, MM = Missing Value Source: Averaged Metar Reports

Daily Weather History Graph

Daily Weather History Graph

Search for Another Location

Airport or City:

Trip Planner

Search our weather history database for the weather conditions in past years. The results will help you decide how hot, cold, wet, or windy it might be!

Date:

Astronomy

Dec. 22, 2013 Rise Set
Actual Time 7:18 AM CST 6:10 PM CST
Civil Twilight 6:54 AM CST 6:34 PM CST
Nautical Twilight 6:27 AM CST 7:02 PM CST
Astronomical Twilight 5:59 AM CST 7:29 PM CST
Moon 10:49 PM CST (12/22) 10:48 AM CST (12/22)
Length of Visible Light 11h 39m
Length of Day
10h 51m
Waning Gibbous, 76% of the Moon is Illuminated
Dec 22
Waning Gibbous
Dec 25
Last Quarter
Jan 1
New
Jan 7
First Quarter
Jan 15
Full

Hourly Weather History & Observations

Time (CST) Temp. Dew Point Humidity Pressure Visibility Wind Dir Wind Speed Gust Speed Precip Events Conditions
12:43 AM 53.6 °F 46.4 °F 77% 30.18 in 8.0 mi WSW 5.8 mph - N/A   Mostly Cloudy
2:44 AM 50.0 °F 46.4 °F 87% 29.84 in 8.0 mi Calm Calm - N/A   Mostly Cloudy
3:44 AM 48.2 °F 44.6 °F 87% 30.18 in 8.0 mi Calm Calm - N/A   Mostly Cloudy
4:43 AM 46.4 °F 44.6 °F 93% 30.18 in 8.0 mi Calm Calm - N/A   Scattered Clouds
5:41 AM 46.4 °F 44.6 °F 93% 29.91 in 8.0 mi Calm Calm - N/A   Scattered Clouds
6:42 AM 48.2 °F 46.4 °F 93% 30.18 in 8.0 mi NE 8.1 mph - N/A   Scattered Clouds
7:47 AM 46.4 °F 44.6 °F 93% 30.21 in 9.0 mi Calm Calm - N/A   Mostly Cloudy
8:46 AM 53.6 °F 50.0 °F 88% 29.99 in 10.0 mi Calm Calm - N/A   Mostly Cloudy
9:46 AM 60.8 °F 51.8 °F 72% 30.27 in 10.0 mi Calm Calm - N/A   Mostly Cloudy
10:45 AM 69.8 °F 48.2 °F 46% 30.27 in 10.0 mi SW 5.8 mph - N/A   Mostly Cloudy
11:43 AM 66.2 °F 44.6 °F 46% 29.99 in 10.0 mi West 10.4 mph - N/A   Mostly Cloudy
12:42 PM 68.0 °F 42.8 °F 40% 30.21 in 10.0 mi WSW 6.9 mph - N/A   Mostly Cloudy
1:47 PM 69.8 °F 41.0 °F 35% 30.18 in 10.0 mi Calm Calm - N/A   Mostly Cloudy
2:47 PM 71.6 °F 41.0 °F 33% 29.88 in 10.0 mi North 4.6 mph - N/A   Overcast
3:47 PM 73.4 °F 39.2 °F 29% 30.15 in 10.0 mi West 3.5 mph - N/A   Overcast
4:49 PM 73.4 °F 39.2 °F 29% 30.15 in 10.0 mi East 3.5 mph - N/A   Mostly Cloudy
5:48 PM 69.8 °F 39.2 °F 33% 29.92 in 10.0 mi ESE 4.6 mph - N/A   Mostly Cloudy
6:45 PM 64.4 °F 41.0 °F 42% 30.18 in 8.0 mi Calm Calm - N/A   Mostly Cloudy
7:46 PM 60.8 °F 41.0 °F 48% 30.21 in 8.0 mi Calm Calm - N/A   Mostly Cloudy
8:41 PM 55.4 °F 41.0 °F 58% 30.00 in 8.0 mi Calm Calm - N/A   Mostly Cloudy
9:58 PM 55.4 °F 41.0 °F 58% 30.24 in 8.0 mi NE 6.9 mph - N/A   Mostly Cloudy
10:54 PM 53.6 °F 41.0 °F 62% 30.24 in 8.0 mi NE 6.9 mph - N/A   Mostly Cloudy
11:46 PM 53.6 °F 41.0 °F 62% 29.93 in 8.0 mi NE 8.1 mph - N/A   Scattered Clouds